Weather History for Montpelier, VT

Change the Weather History Date:

Monday, December 31, 2012

  Actual Average Record
Temperature  
Mean Temperature 21 °F 18 °F  
Max Temperature 29 °F 27 °F 56 °F (1965)
Min Temperature 13 °F 9 °F -19 °F (1963)
Degree Days  
Heating Degree Days 44 47  
Month to date heating degree days 1176 1301  
Since 1 July heating degree days 2963 3148  
Moisture  
Dew Point 18 °F    
Average Humidity 80    
Maximum Humidity 91    
Minimum Humidity 69    
Precipitation  
Precipitation 0.02 in 0.07 in 0.36 in (2007)
Month to date precipitation 4.65 2.74  
Year to date precipitation 35.13 37.27  
Sea Level Pressure  
Sea Level Pressure 29.90 in    
Wind  
Wind Speed 6 mph (WSW)    
Max Wind Speed 28 mph    
Max Gust Speed 39 mph    
Visibility 8 miles    
Events Snow    
T = Trace of Precipitation, MM = Missing Value Source: NWS Daily Summary

Daily Weather History Graph

Daily Weather History Graph

Search for Another Location

Airport:

Trip Planner

Search our weather history database for the weather conditions in past years. The results will help you decide how hot, cold, wet, or windy it might be!

Date:

Astronomy

Dec. 31, 2012 Rise Set
Actual Time 7:25 AM EST 4:21 PM EST
Civil Twilight 6:52 AM EST 4:54 PM EST
Nautical Twilight 6:16 AM EST 5:31 PM EST
Astronomical Twilight 5:40 AM EST 6:06 PM EST
Moon 7:57 PM EST (12/31) 8:58 AM EST (12/31)
Length of Visible Light 10h 02m
Length of Day
8h 55m
Waning Gibbous, 90% of the Moon is Illuminated
Dec 31
Waning Gibbous
Jan 4
Last Quarter
Jan 11
New
Jan 18
First Quarter
Jan 26
Full

Hourly Weather History & Observations

Time (EST) Temp. Windchill Dew Point Humidity Pressure Visibility Wind Dir Wind Speed Gust Speed Precip Events Conditions
12:51 AM 15.1 °F -3.7 °F 9.0 °F 77% 30.07 in 3.0 mi NW 24.2 mph 35.7 mph 0.01 in Snow Blowing Snow
1:51 AM 16.0 °F -0.4 °F 10.0 °F 77% 30.07 in 5.0 mi NW 18.4 mph 36.8 mph 0.00 in Snow Light Snow
2:51 AM 17.1 °F 4.3 °F 10.9 °F 77% 30.08 in 4.0 mi WNW 11.5 mph 20.7 mph 0.00 in Snow Light Snow
3:51 AM 18.0 °F 7.7 °F 12.0 °F 78% 30.06 in 7.0 mi NW 8.1 mph 20.7 mph 0.00 in Snow Light Snow
4:51 AM 17.1 °F 11.7 °F 12.9 °F 84% 30.05 in 6.0 mi NE 3.5 mph - 0.00 in Snow Light Snow
5:51 AM 18.0 °F 12.7 °F 14.0 °F 84% 30.05 in 7.0 mi Variable 3.5 mph - 0.00 in Snow Light Snow
6:51 AM 19.0 °F 10.0 °F 16.0 °F 88% 30.04 in 6.0 mi North 6.9 mph - 0.00 in Snow Light Snow
7:51 AM 19.9 °F - 17.1 °F 89% 30.04 in 9.0 mi Calm Calm - 0.00 in   Overcast
8:51 AM 21.0 °F 16.2 °F 17.1 °F 85% 30.03 in 6.0 mi NNW 3.5 mph - 0.00 in   Overcast
9:24 AM 21.2 °F - 17.6 °F 86% 29.96 in 7.0 mi Calm Calm - N/A   Overcast
9:51 AM 21.0 °F 16.2 °F 17.1 °F 85% 30.02 in 9.0 mi NNE 3.5 mph - N/A   Overcast
10:51 AM 23.0 °F - 18.0 °F 81% 30.00 in 9.0 mi Calm Calm - N/A   Overcast
11:34 AM 23.0 °F - 17.6 °F 80% 29.91 in 10.0 mi Calm Calm - N/A   Overcast
11:51 AM 23.0 °F - 18.0 °F 81% 29.97 in 10.0 mi Calm Calm - N/A   Overcast
12:51 PM 24.1 °F - 19.0 °F 81% 29.93 in 8.0 mi Calm Calm - N/A   Overcast
1:51 PM 25.0 °F - 19.9 °F 81% 29.91 in 9.0 mi Calm Calm - N/A   Overcast
2:51 PM 26.1 °F - 19.9 °F 78% 29.89 in 10.0 mi Calm Calm - N/A   Overcast
3:51 PM 26.1 °F - 21.0 °F 81% 29.88 in 10.0 mi Calm Calm - N/A   Overcast
4:51 PM 27.0 °F - 21.9 °F 81% 29.86 in 10.0 mi Calm Calm - N/A   Overcast
5:51 PM 26.6 °F 20.0 °F 21.2 °F 80% 29.78 in 10.0 mi SSW 5.8 mph - N/A   Overcast
6:51 PM 27.0 °F - 21.0 °F 78% 29.83 in 10.0 mi Calm Calm - N/A   Overcast
7:27 PM 26.6 °F 21.2 °F 21.2 °F 80% 29.75 in 10.0 mi Variable 4.6 mph - N/A   Overcast
7:51 PM 28.0 °F 19.3 °F 19.9 °F 72% 29.79 in 10.0 mi SW 9.2 mph - N/A   Overcast
8:51 PM 28.9 °F 19.2 °F 21.0 °F 72% 29.77 in 10.0 mi SSW 11.5 mph - N/A   Overcast
8:59 PM 28.4 °F 21.2 °F 21.2 °F 74% 29.71 in 10.0 mi SW 6.9 mph - N/A   Overcast
9:51 PM 28.9 °F 17.3 °F 21.9 °F 75% 29.75 in 10.0 mi SW 16.1 mph 23.0 mph N/A   Overcast
10:51 PM 28.0 °F 19.3 °F 24.1 °F 85% 29.73 in 3.0 mi South 9.2 mph - 0.00 in Snow Light Snow
11:23 PM 28.4 °F 22.2 °F 24.8 °F 86% 29.67 in 2.0 mi South 5.8 mph - 0.01 in Snow Light Snow
11:47 PM 28.4 °F 21.2 °F 24.8 °F 86% 29.65 in 5.0 mi SSW 6.9 mph 17.3 mph 0.01 in Snow Light Snow
11:51 PM 28.9 °F 22.8 °F 24.1 °F 82% 29.70 in 7.0 mi SW 5.8 mph - 0.01 in   Overcast